When you browse on this site, cookies collect data to enhance your experience and personalize the content and advertising you see.
Visit our Privacy Policy to learn more. By continuing to use the site, you agree to this use of cookies and data.
  • In Czech Republic
  • List of Countries
  • For 7 days
  • Water Temperature
  • Satellite Maps
  • Weather Map
  • Weather Widgets
  • user-avatar
    Login

    Hourly Weather Sacramento

    Today, 24 January, Thursday

    Time Temperature Precipitation Wind Pressure Humidity
    00:00 +8°C° 0 mm 2 mps 769 mmHg 76%
    01:00 +8°C° 0 mm 2 mps 769 mmHg 78%
    02:00 +8°C° 0 mm 2 mps 768 mmHg 81%
    03:00 +8°C° 0 mm 2 mps 768 mmHg 84%
    04:00 +8°C° 0 mm 2 mps 768 mmHg 87%
    05:00 +8°C° 0 mm 1 mps 768 mmHg 88%
    06:00 +8°C° 0 mm 1 mps 768 mmHg 88%
    07:00 +8°C° 0 mm 1 mps 768 mmHg 89%
    08:00 +9°C° 0 mm 1 mps 768 mmHg 82%
    09:00 +10°C° 0 mm 1 mps 768 mmHg 75%
    10:00 +12°C° 0 mm 2 mps 768 mmHg 67%
    11:00 +13°C° 0 mm 2 mps 768 mmHg 63%
    12:00 +14°C° 0 mm 2 mps 767 mmHg 58%
    13:00 +16°C° 0 mm 2 mps 767 mmHg 53%
    14:00 +16°C° 0 mm 1 mps 767 mmHg 55%
    15:00 +16°C° 0 mm 1 mps 766 mmHg 57%
    16:00 +16°C° 0 mm 1 mps 766 mmHg 58%
    17:00 +15°C° 0 mm 1 mps 767 mmHg 63%
    18:00 +12°C° 0 mm 0 mps 767 mmHg 68%
    19:00 +11°C° 0 mm 0 mps 768 mmHg 74%
    20:00 +10°C° 0 mm 0 mps 768 mmHg 75%
    21:00 +10°C° 0 mm 0 mps 768 mmHg 77%
    22:00 +9°C° 0 mm 0 mps 768 mmHg 79%
    23:00 +9°C° 0 mm 0 mps 768 mmHg 79%

    Tomorrow, 25 January, Friday

    Time Temperature Precipitation Wind Pressure Humidity
    00:00 +10°C° 0 mm 1 mps 768 mmHg 79%
    01:00 +9°C° 0 mm 1 mps 768 mmHg 79%
    02:00 +9°C° 0 mm 1 mps 768 mmHg 78%
    03:00 +9°C° 0 mm 1 mps 768 mmHg 76%
    04:00 +7°C° 0 mm 2 mps 768 mmHg 75%
    05:00 +7°C° 0 mm 2 mps 768 mmHg 73%
    06:00 +7°C° 0 mm 2 mps 768 mmHg 70%
    07:00 +6°C° 0 mm 2 mps 769 mmHg 68%
    08:00 +8°C° 0 mm 2 mps 768 mmHg 64%
    09:00 +9°C° 0 mm 2 mps 768 mmHg 59%
    10:00 +11°C° 0 mm 3 mps 768 mmHg 54%
    11:00 +12°C° 0 mm 3 mps 767 mmHg 52%
    12:00 +14°C° 0 mm 3 mps 767 mmHg 49%
    13:00 +16°C° 0 mm 3 mps 766 mmHg 46%
    14:00 +16°C° 0 mm 3 mps 766 mmHg 48%
    15:00 +16°C° 0 mm 3 mps 766 mmHg 49%
    16:00 +16°C° 0 mm 3 mps 766 mmHg 51%
    17:00 +15°C° 0 mm 2 mps 766 mmHg 55%
    18:00 +13°C° 0 mm 2 mps 767 mmHg 59%
    19:00 +10°C° 0 mm 2 mps 767 mmHg 63%
    20:00 +10°C° 0 mm 2 mps 767 mmHg 65%
    21:00 +10°C° 0 mm 2 mps 767 mmHg 66%
    22:00 +9°C° 0 mm 2 mps 768 mmHg 67%
    23:00 +9°C° 0 mm 2 mps 768 mmHg 65%

    Day after tomorrow, 26 January, Saturday

    Time Temperature Precipitation Wind Pressure Humidity
    00:00 +9°C° 0 mm 2 mps 768 mmHg 63%
    01:00 +8°C° 0 mm 2 mps 768 mmHg 61%
    02:00 +8°C° 0 mm 2 mps 768 mmHg 62%
    03:00 +9°C° 0 mm 1 mps 768 mmHg 62%
    04:00 +8°C° 0 mm 1 mps 768 mmHg 63%
    05:00 +8°C° 0 mm 1 mps 768 mmHg 63%
    06:00 +8°C° 0 mm 1 mps 768 mmHg 64%
    07:00 +8°C° 0 mm 1 mps 769 mmHg 64%
    08:00 +9°C° 0 mm 1 mps 769 mmHg 60%
    09:00 +11°C° 0 mm 1 mps 769 mmHg 56%
    10:00 +13°C° 0 mm 1 mps 769 mmHg 51%
    11:00 +14°C° 0 mm 1 mps 769 mmHg 48%
    12:00 +16°C° 0 mm 1 mps 768 mmHg 45%
    13:00 +18°C° 0 mm 1 mps 768 mmHg 42%
    14:00 +18°C° 0 mm 1 mps 768 mmHg 45%
    15:00 +18°C° 0 mm 1 mps 768 mmHg 48%
    16:00 +18°C° 0 mm 1 mps 768 mmHg 50%
    17:00 +14°C° 0 mm 0 mps 768 mmHg 54%
    18:00 +13°C° 0 mm 0 mps 768 mmHg 57%
    19:00 +12°C° 0 mm 0 mps 769 mmHg 60%
    20:00 +11°C° 0 mm 0 mps 769 mmHg 61%
    21:00 +12°C° 0 mm 1 mps 769 mmHg 62%
    22:00 +12°C° 0 mm 1 mps 769 mmHg 63%
    23:00 +12°C° 0 mm 1 mps 769 mmHg 65%

    27 January, Sunday

    Time Temperature Precipitation Wind Pressure Humidity
    00:00 +12°C° 0 mm 1 mps 769 mmHg 66%
    01:00 +10°C° 0 mm 0 mps 769 mmHg 68%
    02:00 +11°C° 0 mm 1 mps 769 mmHg 69%
    03:00 +11°C° 0 mm 1 mps 769 mmHg 69%
    04:00 +10°C° 0 mm 1 mps 769 mmHg 70%
    05:00 +10°C° 0 mm 1 mps 769 mmHg 70%
    06:00 +10°C° 0 mm 1 mps 769 mmHg 71%
    07:00 +10°C° 0 mm 1 mps 769 mmHg 71%
    08:00 +11°C° 0 mm 1 mps 769 mmHg 67%
    09:00 +13°C° 0 mm 1 mps 768 mmHg 62%
    10:00 +14°C° 0 mm 1 mps 768 mmHg 58%
    11:00 +16°C° 0 mm 1 mps 767 mmHg 54%
    12:00 +18°C° 0 mm 1 mps 767 mmHg 49%
    13:00 +20°C° 0 mm 1 mps 766 mmHg 45%
    14:00 +20°C° 0 mm 1 mps 765 mmHg 47%
    15:00 +20°C° 0 mm 1 mps 765 mmHg 50%
    16:00 +20°C° 0 mm 1 mps 764 mmHg 52%
    17:00 +18°C° 0 mm 1 mps 764 mmHg 57%
    18:00 +15°C° 0 mm 1 mps 764 mmHg 61%
    19:00 +14°C° 0 mm 1 mps 764 mmHg 66%
    20:00 +13°C° 0 mm 1 mps 764 mmHg 68%
    21:00 +13°C° 0 mm 1 mps 764 mmHg 69%
    22:00 +12°C° 0 mm 1 mps 764 mmHg 71%
    23:00 +12°C° 0 mm 1 mps 764 mmHg 73%

    28 January, Monday

    Time Temperature Precipitation Wind Pressure Humidity
    00:00 +10°C° 0 mm 0 mps 764 mmHg 74%
    01:00 +10°C° 0 mm 0 mps 763 mmHg 76%
    02:00 +11°C° 0 mm 1 mps 763 mmHg 77%
    03:00 +11°C° 0 mm 1 mps 762 mmHg 78%
    04:00 +10°C° 0 mm 1 mps 762 mmHg 80%
    05:00 +10°C° 0 mm 1 mps 762 mmHg 80%
    06:00 +10°C° 0 mm 1 mps 762 mmHg 81%
    07:00 +10°C° 0 mm 1 mps 762 mmHg 81%
    08:00 +10°C° 0 mm 2 mps 762 mmHg 73%
    09:00 +11°C° 0 mm 3 mps 762 mmHg 65%
    10:00 +13°C° 0 mm 4 mps 762 mmHg 56%
    11:00 +15°C° 0 mm 4 mps 762 mmHg 53%
    12:00 +17°C° 0 mm 5 mps 762 mmHg 50%
    13:00 +20°C° 0 mm 6 mps 761 mmHg 46%
    14:00 +20°C° 0 mm 6 mps 761 mmHg 45%
    15:00 +20°C° 0 mm 7 mps 761 mmHg 44%
    16:00 +20°C° 0 mm 7 mps 761 mmHg 43%
    17:00 +17°C° 0 mm 7 mps 761 mmHg 42%
    18:00 +16°C° 0 mm 6 mps 762 mmHg 42%
    19:00 +14°C° 0 mm 6 mps 762 mmHg 42%
    20:00 +13°C° 0 mm 6 mps 763 mmHg 41%
    21:00 +12°C° 0 mm 5 mps 763 mmHg 40%
    22:00 +10°C° 0 mm 5 mps 763 mmHg 40%
    23:00 +10°C° 0 mm 5 mps 763 mmHg 40%

    29 January, Tuesday

    Time Temperature Precipitation Wind Pressure Humidity
    00:00 +10°C° 0 mm 4 mps 764 mmHg 40%
    01:00 +8°C° 0 mm 4 mps 764 mmHg 40%
    02:00 +8°C° 0 mm 4 mps 764 mmHg 40%
    03:00 +9°C° 0 mm 3 mps 764 mmHg 41%
    04:00 +8°C° 0 mm 3 mps 764 mmHg 41%
    05:00 +8°C° 0 mm 3 mps 765 mmHg 42%
    06:00 +8°C° 0 mm 3 mps 765 mmHg 43%
    07:00 +8°C° 0 mm 3 mps 766 mmHg 44%
    08:00 +9°C° 0 mm 3 mps 765 mmHg 43%
    09:00 +10°C° 0 mm 3 mps 765 mmHg 43%
    10:00 +12°C° 0 mm 3 mps 765 mmHg 43%
    11:00 +13°C° 0 mm 3 mps 765 mmHg 41%
    12:00 +16°C° 0 mm 3 mps 765 mmHg 40%
    13:00 +17°C° 0 mm 3 mps 764 mmHg 39%
    14:00 +17°C° 0 mm 2 mps 764 mmHg 41%
    15:00 +17°C° 0 mm 2 mps 764 mmHg 44%
    16:00 +17°C° 0 mm 2 mps 763 mmHg 46%
    17:00 +16°C° 0 mm 1 mps 764 mmHg 49%
    18:00 +14°C° 0 mm 1 mps 764 mmHg 53%
    19:00 +12°C° 0 mm 1 mps 764 mmHg 56%
    20:00 +12°C° 0 mm 1 mps 765 mmHg 56%
    21:00 +11°C° 0 mm 1 mps 765 mmHg 56%
    22:00 +11°C° 0 mm 1 mps 765 mmHg 57%
    23:00 +11°C° 0 mm 1 mps 765 mmHg 58%
    Show more